Location: Shepherdstown, WV
(39.4326°N, 77.8042°W)
Time: 15:36:16
(UTC-04:00)

Tiros 1 despin weight - Pass Details

Date: 09 August 2021
Orbit: 593 x 641 km, 48.2° (Epoch: 18 September)

Event Time Altitude Azimuth Distance (km) Brightness Sun altitude
Rises 18:57:46 0° 282° (WNW) 2,939 ? 13.4°
Reaches altitude 10° 19:01:56 10° 246° (WSW) 2,021 ? 12.6°
Maximum altitude 19:03:08 11° 231° (SW) 1,957 ? 12.4°
Drops below altitude 10° 19:04:20 10° 216° (SW) 2,014 ? 12.1°
Sets 19:08:28 0° 180° (S) 2,906 ? 11.4°
